Location: Bluejay Creek
(37.7819°N, 119.6118°W)
Time: 21:47:45
(UTC+00:00)

Cosmos 2150 Rocket - Pass Details

Date: 05 August 2024
Orbit: 747 x 805 km, 74.0° (Epoch: 08 September)

Event Time Altitude Azimuth Distance (km) Brightness Sun altitude
Rises 12:19:41 0° 338° (NNW) 3,284 7.4 -9.1°
Reaches altitude 10° 12:22:07 10° 336° (NNW) 2,342 6.6 -8.6°
Maximum altitude 12:27:22 66° 255° (WSW) 840 4.0 -7.7°
Drops below altitude 10° 12:32:31 10° 174° (S) 2,289 6.3 -6.8°
Sets 12:34:52 0° 171° (S) 3,202 7.0 -6.4°
